Miscellaneous Local Product
Issued by NWS Hastings, NE

Home | Current Version | Previous Version | Graphics & Text | Print | Product List | Glossary On
Versions: 1 2 3 4 5 6 7 8 9 10 11 12 13 14 15 16 17 18 19 20 21 22 23 24 25 26 27 28 29 30 31 32 33 34 35 36 37 38 39 40 41 42 43 44 45 46 47 48 49 50
000
AXUS43 KGID 181702
MISGRI

GID CWA HOURLY WEATHER ROUNDUP
NATIONAL WEATHER SERVICE HASTINGS NE
1200 PM CDT WED OCT 18 2017

NOTE: "FAIR" INDICATES FEW OR NO CLOUDS BELOW 12,000 FEET WITH NO
SIGNIFICANT WEATHER AND/OR OBSTRUCTIONS TO VISIBILITY.

...SOUTH CENTRAL NEBRASKA...

CITY           SKY/WX    TMP DP  RH WIND       PRES   REMARKS
GRAND ISLAND   SUNNY     69  44  40 SW8       29.93R
HASTINGS       SUNNY     67  45  45 SW9       29.94S
KEARNEY        SUNNY     71  38  29 NW10      29.94S
ORD            LGT RAIN  71  28  20 N23G30    29.94R
YORK           SUNNY     66  48  52 SW10      29.92R
AURORA         SUNNY     66  46  48 SW9       29.92S
LEXINGTON      SUNNY     73  31  21 N17G23    29.97R
HOLDREGE       CLOUDY    72  35  25 NW12G18   29.95R
HEBRON         SUNNY     67  47  49 S10       29.95F

...NEBRASKA PANHANDLE...

CITY           SKY/WX    TMP DP  RH WIND       PRES   REMARKS
CHADRON        SUNNY     63  26  24 NE9       30.12R
ALLIANCE       SUNNY     66  24  20 NE18      30.11R
SCOTTSBLUFF    SUNNY     70  19  14 NE14G20   30.11R
SIDNEY         SUNNY     71  16  12 N18G30    30.11R

...WESTERN AND NORTH CENTRAL NEBRASKA...

CITY           SKY/WX    TMP DP  RH WIND       PRES   REMARKS
VALENTINE      SUNNY     66  30  26 N20G28    30.05R
AINSWORTH      SUNNY     64  36  34 N17G26    30.03R
ONEILL         SUNNY     66  37  34 N18G31    29.97R
BROKEN BOW     SUNNY     70  32  24 N25G38    29.96R
IMPERIAL       SUNNY     78  12   8 N18G26    30.04R
NORTH PLATTE   SUNNY     74  28  18 N21G29    30.00R
MCCOOK         MOSUNNY   67  33  28 W10       29.99R

...EASTERN NEBRASKA...

CITY           SKY/WX    TMP DP  RH WIND       PRES   REMARKS
NORFOLK        SUNNY     68  42  38 NW9       29.90R
SO SIOUX CITY  SUNNY     67  47  48 W7        29.90R
TEKAMAH        SUNNY     69  47  45 S12       29.90S
COLUMBUS       SUNNY     67  47  48 SW9       29.92R
ALBION         SUNNY     70  40  32 N8        29.92R
OMAHA EPPLEY   MOSUNNY   66  48  52 S14       29.92F
OFFUTT AFB     SUNNY     67  48  51 S12       29.92F
MILLARD        SUNNY     69  51  51 S7        29.92F
LINCOLN        SUNNY     68  48  48 SW12      29.93F
NEBRASKA CITY  SUNNY     67  49  54 SW15      29.97R
BEATRICE       SUNNY     65  49  54 SW13      29.95F
FALLS CITY     SUNNY     66  46  48 S12       29.98S

...NORTHERN KANSAS...

CITY           SKY/WX    TMP DP  RH WIND       PRES   REMARKS
GOODLAND       CLOUDY    78  21  12 MISG      30.07R
HILL CITY      SUNNY     70  45  40 CALM      29.99R
NORTON         SUNNY     73  27  17 NW8       29.98R
PHILLIPSBURG   SUNNY     70  45  40 SW5       29.97S
SMITH CENTER   SUNNY     63  45  51 S8        29.96S
HAYS           MOSUNNY   65  47  52 W6        30.00R
RUSSELL        CLOUDY    65  48  54 SW8       29.98R
CONCORDIA      SUNNY     63  49  60 SW9       29.98R
SALINA         SUNNY     68  50  52 S14       29.99F
TOPEKA         SUNNY     68  47  46 SW16      30.00F



USA.gov is the U.S. government's official web portal to all federal, state and local government web resources and services.